This is the latest recevied weather packets stored in our database for station/object IW3HBX-13. If no packets are shown the sender has not sent any weather packets the latest 1 day(s).
| Time | Temp. | Humidity | Pressure | Rain* | Wind** | Luminosity | Snow |
|---|---|---|---|---|---|---|---|
| 1777956127 | 16.11° C | 90% | 1014 hPa | 0 mm | 1.34 m/s, 65° | 20 W/m² | - |
| 1777955767 | 16.11° C | 90% | 1014 hPa | 0 mm | 0.89 m/s, 72° | 20 W/m² | - |
| 1777955047 | 15.56° C | 91% | 1014.1 hPa | 0 mm | 1.79 m/s, 63° | 9 W/m² | - |
| 1777954687 | 15.56° C | 91% | 1014.1 hPa | 0 mm | 1.79 m/s, 63° | 5 W/m² | - |
| 1777954327 | 15.56° C | 92% | 1014 hPa | 0 mm | 1.79 m/s, 74° | 3 W/m² | - |
| 1777953967 | 15.56° C | 92% | 1014 hPa | 0 mm | 1.79 m/s, 61° | 3 W/m² | - |
| 1777953247 | 15.56° C | 92% | 1014 hPa | 0 mm | 1.34 m/s, 58° | 1 W/m² | - |
| 1777952887 | 15.56° C | 92% | 1014 hPa | 0 mm | 0.89 m/s, 63° | 1 W/m² | - |
| 1777952527 | 15.56° C | 93% | 1014 hPa | 0 mm | 1.79 m/s, 60° | 0 W/m² | - |
| 1777952167 | 15.56° C | 93% | 1013.9 hPa | 0 mm | 1.34 m/s, 59° | 0 W/m² | - |
| 1777951810 | 15.56° C | 93% | 1014 hPa | 0 mm | 1.34 m/s, 62° | 0 W/m² | - |
| 1777951447 | 15.56° C | 93% | 1014.1 hPa | 0 mm | 1.34 m/s, 63° | 0 W/m² | - |
| 1777951090 | 15.56° C | 93% | 1014.1 hPa | 0 mm | 0.89 m/s, 37° | 0 W/m² | - |
| 1777950727 | 15.56° C | 93% | 1014.2 hPa | 0 mm | 1.34 m/s, 63° | 0 W/m² | - |
| 1777950369 | 15.56° C | 93% | 1014.3 hPa | 0 mm | 0.89 m/s, 64° | 0 W/m² | - |
| 1777949647 | 15.56° C | 92% | 1014.3 hPa | 0 mm | 1.34 m/s, 69° | 0 W/m² | - |
| 1777949290 | 15.56° C | 92% | 1014.3 hPa | 0 mm | 0.89 m/s, 64° | 0 W/m² | - |
| 1777948928 | 15.56° C | 92% | 1014.3 hPa | 0 mm | 1.34 m/s, 72° | 0 W/m² | - |
| 1777948567 | 15.56° C | 92% | 1014.3 hPa | 0 mm | 0.89 m/s, 66° | 0 W/m² | - |
| 1777947848 | 15° C | 92% | 1014.4 hPa | 0 mm | 0.45 m/s, 67° | 0 W/m² | - |
| 1777947488 | 15° C | 92% | 1014.5 hPa | 0 mm | 1.79 m/s, 69° | 0 W/m² | - |
| 1777947127 | 15° C | 91% | 1014.6 hPa | 0 mm | 1.34 m/s, 70° | 0 W/m² | - |
| 1777946767 | 15° C | 91% | 1014.7 hPa | 0 mm | 1.34 m/s, 67° | 0 W/m² | - |
| 1777946047 | 15° C | 90% | 1014.7 hPa | 0 mm | 0.89 m/s, 68° | 0 W/m² | - |
| 1777945687 | 15° C | 89% | 1014.8 hPa | 0 mm | 1.34 m/s, 67° | 0 W/m² | - |
* Rain latest hour (hover to see other rain measurements)
** Current wind speed in m/s (hover to see current wind gust speed)